TimeEST,TemperatureF,Dew PointF,Humidity,Sea Level PressureIn,VisibilityMPH,Wind Direction,Wind SpeedMPH,Gust SpeedMPH,PrecipitationIn,Events,Conditions,WindDirDegrees,DateUTC
12:53 AM,32.0,16.0,52,30.18,10.0,WNW,13.8,23.0,0.00,,Overcast,300,2012-01-02 05:53:00
1:53 AM,30.9,18.0,59,30.16,10.0,WNW,19.6,28.8,N/A,,Overcast,290,2012-01-02 06:53:00
2:53 AM,30.0,17.1,59,30.17,10.0,WNW,12.7,23.0,0.00,,Overcast,290,2012-01-02 07:53:00
3:53 AM,30.0,16.0,56,30.16,9.0,WNW,16.1,33.4,0.00,,Overcast,290,2012-01-02 08:53:00
4:53 AM,30.0,16.0,56,30.15,10.0,WNW,10.4,20.7,N/A,,Overcast,290,2012-01-02 09:53:00
5:53 AM,28.9,15.1,56,30.14,10.0,WNW,13.8,20.7,N/A,,Overcast,300,2012-01-02 10:53:00
6:53 AM,28.0,17.1,63,30.14,6.0,WNW,15.0,23.0,0.00,Snow,Light Snow,290,2012-01-02 11:53:00
7:02 AM,28.4,19.4,69,30.12,2.5,WNW,12.7,21.9,0.00,Snow,Light Snow,290,2012-01-02 12:02:00
7:13 AM,26.6,17.6,69,30.12,5.0,NW,10.4,24.2,0.00,Snow,Light Snow,310,2012-01-02 12:13:00
7:27 AM,26.6,15.8,64,30.12,9.0,WNW,16.1,32.2,0.00,,Overcast,290,2012-01-02 12:27:00
8:22 AM,24.8,15.8,69,30.14,4.0,WNW,18.4,25.3,0.00,Snow,Light Snow,290,2012-01-02 13:22:00
8:40 AM,24.8,14.0,64,30.14,9.0,NW,9.2,25.3,0.00,Snow,Light Snow,310,2012-01-02 13:40:00
8:44 AM,24.8,14.0,64,30.15,2.0,WNW,15.0,24.2,0.00,Snow,Light Snow,300,2012-01-02 13:44:00
8:48 AM,24.8,15.8,69,30.15,0.8,WNW,17.3,24.2,0.00,Snow,Light Snow,300,2012-01-02 13:48:00
8:53 AM,23.0,18.0,81,30.18,0.5,WNW,12.7,24.2,0.00,Snow,Snow,290,2012-01-02 13:53:00
9:03 AM,24.8,17.6,74,30.15,2.0,WNW,15.0,24.2,0.00,Snow,Light Snow,300,2012-01-02 14:03:00
9:13 AM,23.0,17.6,80,30.16,1.2,WNW,16.1,25.3,0.00,Snow,Light Snow,300,2012-01-02 14:13:00
9:25 AM,23.0,17.6,80,30.17,2.5,WNW,15.0,31.1,0.00,Snow,Light Snow,290,2012-01-02 14:25:00
9:33 AM,23.0,17.6,80,30.17,6.0,WNW,16.1,23.0,0.00,Snow,Light Snow,290,2012-01-02 14:33:00
9:44 AM,23.0,17.6,80,30.17,0.8,WNW,12.7,25.3,0.00,Snow,Light Snow,290,2012-01-02 14:44:00
9:53 AM,23.0,17.1,78,30.20,1.0,WNW,13.8,20.7,0.00,Snow,Light Snow,290,2012-01-02 14:53:00
9:58 AM,23.0,15.8,74,30.17,3.0,WNW,12.7,20.7,0.00,Snow,Light Snow,290,2012-01-02 14:58:00
10:13 AM,23.0,15.8,74,30.18,8.0,West,16.1,24.2,0.00,Snow,Light Snow,280,2012-01-02 15:13:00
10:42 AM,23.0,15.8,74,30.18,2.0,WNW,12.7,23.0,0.00,Snow,Light Snow,290,2012-01-02 15:42:00
10:51 AM,23.0,14.0,68,30.18,4.0,West,17.3,26.5,0.00,Snow,Light Snow,280,2012-01-02 15:51:00
10:53 AM,23.0,14.0,68,30.21,5.0,WNW,15.0,26.5,0.00,Snow,Light Snow,300,2012-01-02 15:53:00
11:53 AM,23.0,12.0,63,30.22,9.0,WNW,20.7,31.1,0.00,Snow,Light Snow,290,2012-01-02 16:53:00
12:50 PM,24.8,14.0,64,30.18,6.0,WNW,15.0,23.0,0.00,Snow,Light Snow,300,2012-01-02 17:50:00
12:53 PM,24.1,14.0,65,30.21,5.0,WNW,12.7,23.0,0.00,Snow,Light Snow,290,2012-01-02 17:53:00
1:34 PM,24.8,12.2,59,30.16,9.0,WNW,13.8,20.7,0.00,,Overcast,300,2012-01-02 18:34:00
1:53 PM,25.0,12.0,58,30.19,10.0,WNW,11.5,20.7,0.00,,Overcast,290,2012-01-02 18:53:00
2:34 PM,23.0,14.0,68,30.18,1.0,NNW,13.8,23.0,0.00,Snow,Light Snow,330,2012-01-02 19:34:00
2:37 PM,21.2,15.8,80,30.18,0.2,NNW,13.8,29.9,0.00,Snow,Heavy Snow,330,2012-01-02 19:37:00
2:53 PM,23.0,15.1,72,30.21,3.0,WNW,13.8,20.7,0.00,Snow,Light Snow,300,2012-01-02 19:53:00
3:06 PM,24.8,14.0,64,30.18,10.0,WNW,16.1,24.2,0.00,,Overcast,290,2012-01-02 20:06:00
3:53 PM,24.1,14.0,65,30.23,8.0,NW,10.4,20.7,0.00,Snow,Light Snow,310,2012-01-02 20:53:00
3:58 PM,23.0,15.8,74,30.21,1.2,NW,12.7,20.7,0.00,Snow,Light Snow,310,2012-01-02 20:58:00
4:11 PM,23.0,15.8,74,30.22,2.0,NW,10.4,19.6,0.00,Snow,Light Snow,310,2012-01-02 21:11:00
4:18 PM,23.0,15.8,74,30.22,4.0,NW,10.4,17.3,0.00,Snow,Light Snow,310,2012-01-02 21:18:00
4:20 PM,21.2,15.8,80,30.22,1.8,Variable,6.9,17.3,0.00,Snow,Light Snow,0,2012-01-02 21:20:00
4:31 PM,23.0,15.8,74,30.23,3.0,NW,8.1,-,0.00,Snow,Light Snow,310,2012-01-02 21:31:00
4:45 PM,23.0,15.8,74,30.23,1.8,NNW,5.8,-,0.00,Snow,Light Snow,330,2012-01-02 21:45:00
4:53 PM,21.9,17.1,82,30.27,1.0,Variable,6.9,-,0.00,Snow,Light Snow,0,2012-01-02 21:53:00
5:08 PM,21.2,15.8,80,30.24,3.0,NW,6.9,-,0.00,Snow,Light Snow,310,2012-01-02 22:08:00
5:17 PM,21.2,15.8,80,30.25,2.0,NW,11.5,17.3,0.00,Snow,Light Snow,320,2012-01-02 22:17:00
5:41 PM,21.2,15.8,80,30.26,6.0,WNW,8.1,-,0.00,Snow,Light Snow,300,2012-01-02 22:41:00
5:53 PM,21.0,15.1,78,30.29,10.0,WNW,5.8,-,0.00,,Overcast,300,2012-01-02 22:53:00
6:53 PM,19.9,14.0,78,30.31,10.0,WNW,5.8,-,N/A,,Mostly Cloudy,290,2012-01-02 23:53:00
7:53 PM,21.0,14.0,74,30.33,10.0,WNW,5.8,-,N/A,,Overcast,290,2012-01-03 00:53:00
8:53 PM,21.0,7.0,55,30.34,10.0,NW,8.1,-,N/A,,Partly Cloudy,310,2012-01-03 01:53:00
9:53 PM,19.9,6.1,55,30.35,10.0,NW,9.2,19.6,N/A,,Clear,320,2012-01-03 02:53:00
10:53 PM,19.9,7.0,57,30.37,10.0,Variable,6.9,-,N/A,,Mostly Cloudy,0,2012-01-03 03:53:00
11:53 PM,18.0,8.1,65,30.37,10.0,WNW,8.1,-,N/A,,Clear,290,2012-01-03 04:53:00